Aérodrome :
LOGIN :

S'inscrire | Disclaimer

   EN    FR    IT 

 










Légende :    VFR   VFR Marginal   IFR   IFR Intensif   IFR Très Intensif
Visi : 
Plafond : 
>= 8 km
>= 3000ft
5 à 8 km
1000 à 3000 ft
1500m à 5 km
500 à 1000 ft
800 à 1500m
200 à 500 ft
< 800m
< 200 ft
Symboles :   Orages  Brouillard  Fortes neiges  Fortes précipitations  Vent > 20 kt
SIGMETs :   Divers  Orages  Givrage  Turbulence  Onde Orograph.  Cendres Volcan.







- Altitude de l'aérodrome : 336 ft
- Code IATA : GCI
- Voir les cartes d'approche


EGJB - Guernsey

DERNIER METAR :
  • 171350Z 14005KT 100V180 9999 FEW015 15/11 Q1018

METARs EXPIRÉS :
  • 171320Z 14006KT 110V180 9999 FEW014 16/12 Q1018
  • 171250Z 14008KT 110V170 9999 FEW012 15/12 Q1019
  • 171220Z 15007KT 9999 FEW012 15/12 Q1019
  • 171150Z 16006KT 110V190 9999 FEW012 16/12 Q1019
  • 171120Z 16007KT 9999 FEW012 15/12 Q1019

TAF TAF EGJB
Valide du 17 à 12h jusqu'au 17 à 21h UTC


171054Z 1712/1721 VRB05KT 9999 SCT015
PROB30
TEMPO 1716/1721 9000 -RA BKN010
ATIS : +44 1481 238 957
Pas de NOTAMs connus pour ce terrain.



MET'MAP, la Météo Aéronautique d'un coup d'oeil ! - Copyright ORBIFLY Décembre 2007 - Disclaimer

ORBIFLY MET'MAP TEAM :

Programmation & Développement : Alexandra Zaïnal
Conception & Développement : Baudouin d'Aumeries
Co-Programmation & Développement : Marc-Olivier Méhu
Soutien technique & logistique : Manuel Goepfert

Contact : metmap@orbifly.com




SOURCES & CREDITS :

   NOAA